User: anonymous   Login
Location: Vallejo Observatory
(38.1221°N, 122.2109°W)
Time: 16:01:57
(UTC-08:00)
Language:

MOS 1 Rocket - Orbit

View from above orbital plane
View from above orbital plane
View from above satellite
View from above satellite

Ground track
Ground track

The orbit data is extracted from the following two-line orbital elements,

1 17528U 87018B   15065.12417909  .00000653  00000-0  15307-3 0  9990
2 17528 097.4290 109.4008 0153939 033.1506 339.9832 14.50322985478966
Epoch (UTC): 06 March 2015 02:58:49
Eccentricity: 0.0153939
inclination: 97.4290°
perigee height: 615 km
apogee height: 834 km
right ascension of ascending node: 109.4008°
argument of perigee: 33.1506°
revolutions per day: 14.50322985
mean anomaly at epoch: 339.9832°
orbit number at epoch: 47896

The dashed part of the orbit path shows where the satellite is in the earth's shadow,  

DLR